Starlink 11748

operational
NORAD ID: 64373 Int'l Des: 2025-127 Owner: SPXS Country: US Constellation: starlink
LEOCIRCULAR

About Starlink 11748

Description loading...

Live Position

Loading 3D Globe...

Upcoming Passes

Altitude History

Altitude vs Time

uPlot chart will show altitude changes over time

Two-Line Element Set

1 64373U 25127D 26063.13429629 .00250293 00000-0 18853-2 0 9991
2 64373 43.0018 118.4721 0002369 244.2133 115.8490 15.70973720 42627
Epoch: Mar 4, 2026 • Age: 9 hours

Current Status

Altitude 365.9 km
Velocity 7.69 km/s
Sub-Earth Point -37.89°S, 122.95°E
Launch Date Jun 13, 2025
Age 0.7 years
Type internet

Technical Details

Classification Payload
Mass 960.00 kg
Dry Mass 910.00 kg
Total Mass 960.00 kg
Length 0.30 m
Diameter 4.10 m
Span 29.00 m
Shape Box + pan
Manufacturer SPXS
Bus Type Starlink V2MD
Phase Status In Orbit
Owner/State SPXS/US

Large Constellations

Loading constellations...